K7GFH-13 Weather Reports


time (UTC)temp
C
wind
direction
speed
KPH
gust
KPH
rain 1hr
cm
rain 24hr
cm
rain mn
cm
humidity
%
barometer
mb
20260507181541 14 316 6.4 9.7 0.00 0.00 0.00 66 1022.1
20260507180036 13 82 6.4 6.4 0.00 0.00 0.00 68 1022.2
20260507174533 13 245 3.2 6.4 0.00 0.00 0.00 69 1022.4
20260507173031 13 88 3.2 3.2 0.00 0.00 0.00 68 1022.6
20260507171530 13 25 0.0 0.0 0.00 0.00 0.00 68 1022.5
20260507170027 12 1 6.4 6.4 0.00 0.00 0.00 70 1022.6
20260507164522 11 236 3.2 4.8 0.00 0.00 0.00 73 1022.6
20260507163020 11 142 1.6 1.6 0.00 0.00 0.00 72 1022.6
20260507161520 11 334 3.2 3.2 0.00 0.00 0.00 74 1022.6
20260507160015 11 240 0.0 1.6 0.00 0.00 0.00 76 1022.6
20260507154510 10 100 3.2 4.8 0.00 0.00 0.00 76 1022.5
20260507153006 10 350 6.4 6.4 0.00 0.00 0.00 77 1022.6
20260507151507 10 279 1.6 1.6 0.00 0.00 0.00 78 1022.6
20260507150003 10 281 0.0 1.6 0.00 0.00 0.00 78 1022.7
20260507144458 10 334 6.4 6.4 0.00 0.00 0.00 79 1022.6
20260507142955 10 90 0.0 0.0 0.00 0.00 0.00 79 1022.6
20260507141450 9 8 1.6 1.6 0.00 0.00 0.00 79 1022.5
20260507135947 9 286 3.2 3.2 0.00 0.00 0.00 79 1022.5
20260507134444 9 345 3.2 4.8 0.00 0.00 0.00 78 1022.4
20260507132941 10 272 4.8 4.8 0.00 0.00 0.00 78 1022.2
20260507131436 10 75 0.0 0.0 0.00 0.00 0.00 80 1022.4
20260507125935 10 295 1.6 1.6 0.00 0.00 0.00 79 1022.4
20260507124431 10 313 3.2 4.8 0.00 0.00 0.00 79 1022.3
20260507122929 10 299 4.8 6.4 0.00 0.00 0.00 79 1022.3
20260507121427 10 240 1.6 1.6 0.00 0.00 0.00 80 1022.4
20260507115922 10 256 0.0 0.0 0.00 0.00 0.00 80 1022.5
20260507114423 10 308 6.4 6.4 0.00 0.00 0.00 79 1022.6
20260507112920 10 306 4.8 4.8 0.00 0.00 0.00 80 1022.5
20260507111418 10 313 4.8 4.8 0.00 0.00 0.00 79 1022.4
20260507105912 10 289 1.6 1.6 0.00 0.00 0.00 79 1022.5
20260507104408 10 325 1.6 3.2 0.00 0.00 0.00 80 1022.7
20260507102909 10 302 1.6 3.2 0.00 0.00 0.00 80 1022.8
20260507101408 11 303 3.2 3.2 0.00 0.00 0.00 80 1022.9
20260507095907 11 347 3.2 3.2 0.00 0.00 0.00 80 1023.0
20260507094402 11 293 1.6 1.6 0.00 0.00 0.00 80 1023.0
20260507092901 11 297 3.2 4.8 0.00 0.00 0.00 81 1023.2
20260507091356 11 257 0.0 0.0 0.00 0.00 0.00 82 1023.0
20260507085851 11 308 1.6 1.6 0.00 0.00 0.00 81 1023.0
20260507084348 11 306 1.6 3.2 0.00 0.00 0.00 81 1023.3
20260507082844 11 306 3.2 3.2 0.00 0.00 0.00 81 1023.2
20260507081338 11 322 3.2 3.2 0.00 0.00 0.00 81 1023.3
20260507075833 11 315 3.2 4.8 0.00 0.00 0.00 81 1023.4
20260507074329 11 276 3.2 3.2 0.00 0.00 0.00 81 1023.3
20260507072826 11 334 3.2 3.2 0.00 0.00 0.00 81 1023.1
20260507071324 11 286 3.2 4.8 0.00 0.00 0.00 80 1023.1
20260507065820 11 11 4.8 6.4 0.00 0.00 0.00 80 1023.1
20260507064318 11 267 6.4 9.7 0.00 0.00 0.00 80 1023.2
20260507062814 11 333 4.8 4.8 0.00 0.00 0.00 80 1023.4
20260507061313 12 315 6.4 6.4 0.00 0.00 0.00 79 1023.2
20260507055810 12 224 3.2 3.2 0.00 0.00 0.00 79 1023.2
20260507054310 12 212 0.0 0.0 0.00 0.00 0.00 79 1023.2
20260507052810 12 313 3.2 3.2 0.00 0.00 0.00 80 1023.2
20260507051307 12 304 9.7 9.7 0.00 0.00 0.00 80 1023.0
20260507045803 12 321 6.4 9.7 0.00 0.00 0.00 79 1023.1
20260507044259 13 333 8.0 9.7 0.00 0.00 0.00 79 1023.0
20260507042754 13 9 6.4 11.3 0.00 0.00 0.00 79 1023.0
20260507041249 13 321 6.4 6.4 0.00 0.00 0.00 79 1022.8
20260507035745 13 291 6.4 6.4 0.00 0.00 0.00 79 1022.5
20260507034240 13 276 4.8 4.8 0.00 0.00 0.00 79 1022.4
20260507032739 14 340 8.0 11.3 0.00 0.00 0.00 78 1022.3
20260507031235 14 320 6.4 6.4 0.00 0.00 0.00 78 1022.0
20260507025732 15 315 4.8 9.7 0.00 0.00 0.00 76 1021.8
20260507024230 15 249 6.4 6.4 0.00 0.00 0.00 75 1021.7
20260507022726 16 314 9.7 11.3 0.00 0.00 0.00 73 1021.7
20260507021225 16 322 11.3 14.5 0.00 0.00 0.00 72 1021.8
20260507015723 17 327 9.7 12.9 0.00 0.00 0.00 74 1021.7
20260507014219 17 319 3.2 4.8 0.00 0.00 0.00 74 1021.9
20260507012716 17 351 3.2 4.8 0.00 0.00 0.00 72 1021.7
20260507011216 17 334 8.0 11.3 0.00 0.00 0.00 71 1021.9
20260507005715 17 323 4.8 4.8 0.00 0.00 0.00 70 1021.8
20260507004212 18 328 6.4 9.7 0.00 0.00 0.00 69 1021.9
20260507002710 19 320 1.6 3.2 0.00 0.00 0.00 64 1021.8
20260507001206 20 302 3.2 6.4 0.00 0.00 0.00 61 1021.8
20260506235701 19 225 1.6 1.6 0.00 0.00 0.00 62 1022.0
20260506234157 18 160 0.0 0.0 0.00 0.00 0.00 67 1022.1
20260506232653 18 266 4.8 4.8 0.00 0.00 0.00 67 1021.8
20260506231150 18 326 9.7 11.3 0.00 0.00 0.00 69 1022.2
20260506225646 17 283 6.4 9.7 0.00 0.00 0.00 71 1022.4
20260506224141 18 315 8.0 12.9 0.00 0.00 0.00 69 1022.4
20260506222637 17 220 0.0 1.6 0.00 0.00 0.00 68 1022.3
20260506221135 18 204 4.8 4.8 0.00 0.00 0.00 66 1022.7
20260506215635 17 236 3.2 3.2 0.00 0.00 0.00 70 1022.5
20260506214131 18 235 1.6 1.6 0.00 0.00 0.00 70 1022.6
20260506212629 17 318 3.2 4.8 0.00 0.00 0.00 74 1022.8
20260506211129 17 155 0.0 0.0 0.00 0.00 0.00 70 1022.8
20260506205625 17 279 1.6 1.6 0.00 0.00 0.00 72 1022.7
20260506204120 16 224 0.0 0.0 0.00 0.00 0.00 75 1022.8
20260506202619 16 179 6.4 6.4 0.00 0.00 0.00 76 1022.8
20260506201115 16 336 1.6 1.6 0.00 0.00 0.00 77 1023.2
20260506195611 15 211 3.2 4.8 0.00 0.00 0.00 80 1022.9
20260506194107 15 314 3.2 4.8 0.00 0.00 0.00 81 1023.1
20260506192604 15 217 0.0 1.6 0.00 0.00 0.00 79 1023.0
20260506191104 15 297 3.2 3.2 0.00 0.00 0.00 83 1023.1
20260506185602 14 183 4.8 4.8 0.00 0.00 0.00 85 1023.0
20260506184059 15 217 0.0 1.6 0.00 0.00 0.00 84 1023.0